Snowfall_Accumulation
0.0 0.0 0.0 0.0 0.0 0.0 0.0 0.0 0.0 0.0 0.0 0.0 0.0 0.0 0.0 0.0 0.0 0.0 0.0 0.0 0.0 0.0 0.0 0.0 0.0 0.0 0.0 0.0 0.0 0.0 0.0 0.0 0.3 0.1 0.0 0.0 0.1 0.1 0.1 0.1 0.1 0.2 0.2
0.0 0.0 0.0 0.0 0.0 0.0 0.0 0.0 0.0 0.0 0.0 0.0 0.0 0.0 0.0 0.0 0.0 0.0 0.0 0.0 0.0 0.0 0.0 0.0 0.0 0.0 0.1 0.0 0.0 0.0 0.0 0.0 0.1 0.2 0.2 0.2 0.1 0.1 0.2 0.3 0.3 0.2 0.6
0.0 0.0 0.0 0.0 0.0 0.0 0.0 0.0 0.0 0.0 0.0 0.0 0.0 0.0 0.0 0.0 0.0 0.0 0.0 0.0 0.0 0.0 0.0 0.0 0.0 0.1 0.1 0.2 0.1 0.1 0.1 0.1 0.1 0.7 0.9 0.8 0.9 0.8 1.0 0.8 1.1 1.3 1.1
0.0 0.0 0.0 0.0 0.0 0.0 0.0 0.0 0.0 0.0 0.0 0.0 0.0 0.0 0.0 0.0 0.0 0.0 0.1 0.0 0.0 0.0 0.0 0.1 0.1 0.1 0.1 0.1 0.2 0.1 0.2 0.9 1.1 1.3 1.4 1.3 1.3 1.6 1.6 1.7 2.2 1.6 2.1
0.0 0.0 0.0 0.0 0.0 0.0 0.1 0.1 0.1 0.1 0.0 0.0 0.0 0.1 0.0 0.1 0.0 0.1 0.1 0.1 0.1 0.1 0.1 0.1 0.1 0.0 nan nan 0.5 0.5 0.6 1.2 2.3 2.9 2.1 2.0 1.8 1.8 1.7 1.3 2.5 2.5 2.4
0.0 0.0 0.0 0.1 0.2 0.3 0.3 0.3 0.2 0.2 0.2 0.2 0.3 0.3 0.3 0.1 nan nan 0.1 0.1 0.1 0.1 0.1 0.2 0.2 0.3 0.2 nan nan nan nan 1.4 7.4 7.2 1.9 1.7 1.1 1.7 2.3 2.4 2.8 3.2 3.2
0.2 0.5 0.5 0.4 0.5 0.4 0.4 0.4 0.3 0.3 0.3 0.4 0.4 0.4 0.5 0.4 nan nan nan 0.3 0.2 0.1 0.2 0.3 0.5 0.4 0.7 0.3 nan nan nan nan nan 0.6 1.7 1.8 3.0 2.3 2.8 3.4 2.2 2.2 2.5
0.4 1.0 0.8 0.5 1.1 0.6 0.6 0.6 0.5 0.4 0.5 0.5 0.6 0.6 0.6 0.5 nan nan nan 0.2 0.3 0.3 0.3 0.5 0.7 0.8 0.9 1.0 0.9 1.5 1.0 1.0 0.8 0.9 1.7 2.3 2.5 2.6 2.3 2.2 2.8 3.6 3.3
0.2 0.4 0.5 0.8 1.6 0.8 2.3 0.9 0.7 1.5 1.3 2.3 2.0 3.5 2.8 2.3 nan nan 0.5 1.2 1.1 1.0 0.5 0.9 1.1 1.2 nan nan 2.6 5.3 4.1 3.4 nan nan nan nan nan nan nan 8.3 17.9 19.7 10.9
0.2 0.2 0.4 0.9 2.7 2.2 1.0 1.8 2.2 2.5 2.5 3.6 3.5 3.2 1.3 4.9 nan nan nan 4.0 5.8 3.8 2.4 1.4 1.1 1.7 nan nan 3.3 6.2 9.3 5.5 5.7 7.3 3.9 1.9 nan nan nan 3.1 7.7 19.0 10.6
0.8 0.8 1.1 1.1 3.2 1.6 2.1 1.7 3.2 4.6 3.0 5.0 4.7 3.9 4.5 2.6 2.6 nan nan 3.5 5.2 7.2 6.6 5.0 3.2 nan nan nan nan 6.9 7.4 6.4 10.5 8.8 7.6 7.1 5.6 4.5 4.0 3.3 2.2 3.9 8.3
1.7 1.9 2.4 4.1 3.4 3.4 7.4 4.9 6.9 6.7 6.8 6.1 6.4 5.5 4.8 2.8 nan nan nan nan nan 10.5 6.3 3.3 3.4 nan nan nan 3.6 nan nan 4.1 13.3 14.0 11.5 8.8 6.1 5.6 4.2 3.7 2.0 2.1 1.8
5.0 7.0 7.0 5.9 6.1 6.0 9.0 6.4 8.1 7.5 8.5 5.5 7.2 7.0 5.5 5.3 5.7 nan nan nan nan 5.8 4.2 3.5 nan nan nan nan nan nan 2.5 10.0 13.4 14.9 10.0 6.1 3.6 2.8 2.2 2.9 2.1 2.1 1.9
9.4 5.2 4.3 5.6 4.0 4.9 6.0 7.0 10.5 9.0 8.0 8.9 10.3 9.9 6.9 6.7 5.0 5.2 7.9 5.3 3.2 6.9 nan 5.4 nan 4.5 nan nan 4.9 4.9 7.3 7.8 8.2 9.2 7.2 4.1 3.7 5.0 5.5 3.8 5.8 5.2 9.2
6.8 3.8 4.4 6.1 6.8 4.8 4.6 7.0 6.7 4.5 9.1 16.1 18.6 14.0 14.7 13.2 9.6 5.8 12.3 13.3 11.3 11.2 8.7 15.2 12.7 8.9 8.8 7.8 9.5 8.7 8.4 9.0 9.9 9.3 9.0 8.2 7.5 7.0 6.9 5.4 5.9 7.8 10.2
4.1 5.9 5.7 5.6 4.6 4.3 4.6 4.9 nan nan nan nan nan 9.8 13.0 nan nan nan nan nan nan nan 20.7 22.9 12.4 9.9 7.8 8.1 9.9 9.4 8.3 7.4 8.1 9.1 9.9 9.7 10.1 8.3 8.5 9.2 8.9 10.1 11.1
7.3 5.0 6.4 5.0 5.6 6.3 6.6 7.6 8.9 6.7 nan nan nan nan nan nan nan nan nan nan nan nan 32.4 18.3 15.3 11.0 10.5 8.6 10.2 9.5 9.4 7.7 5.4 8.5 8.3 9.0 9.8 10.6 10.6 10.1 9.2 8.6 12.4
7.1 2.1 7.8 7.7 7.5 8.0 8.5 8.9 9.2 10.7 12.0 10.1 nan nan nan nan nan nan nan nan 27.4 nan 24.8 24.9 21.8 17.9 14.3 13.1 11.0 10.6 10.7 10.0 9.3 10.4 10.7 14.2 15.6 16.4 14.9 14.4 10.9 13.5 13.2
7.8 6.7 7.4 7.5 7.3 7.7 8.7 7.9 8.6 8.6 8.9 11.2 11.0 11.2 6.0 nan nan nan nan 18.6 24.7 22.5 22.6 23.2 20.0 18.5 15.0 15.7 15.0 16.9 14.9 15.4 14.6 19.2 19.3 20.3 18.3 18.8 18.3 13.3 10.6 6.5 7.6
8.4 3.5 6.5 11.0 10.1 9.1 6.9 8.4 7.9 8.3 9.3 10.4 10.7 9.5 15.9 15.5 22.1 23.0 19.7 26.0 26.1 23.6 20.8 22.8 23.3 25.1 25.4 23.6 23.1 21.6 21.8 22.9 21.1 22.0 21.8 20.7 19.0 19.7 13.7 17.9 15.4 13.1 14.3
14.7 12.4 2.7 10.9 13.3 13.5 13.9 11.7 9.6 12.6 11.2 12.7 9.8 9.1 nan 16.0 17.6 19.3 22.3 20.7 24.1 25.7 21.4 23.4 24.6 30.7 31.5 34.0 28.9 27.9 26.4 17.2 21.4 23.5 24.9 24.8 23.8 28.4 17.4 11.7 16.2 17.1 16.6
16.0 16.5 16.5 17.8 13.0 13.6 15.5 11.1 12.0 12.1 11.5 10.3 8.2 8.5 nan 10.4 13.1 13.6 15.4 20.1 24.7 25.2 28.5 33.2 32.7 35.3 31.4 29.1 26.7 24.7 21.0 24.7 26.7 25.6 21.5 22.6 25.9 22.3 21.1 14.6 15.1 13.0 16.7
14.6 13.2 13.9 13.9 13.5 6.6 15.0 17.0 15.1 14.2 13.0 13.8 11.9 12.3 14.3 16.9 14.7 14.4 21.6 24.8 19.9 18.7 21.1 22.4 21.1 21.1 19.8 22.9 20.3 19.8 21.5 24.4 25.7 32.0 23.3 24.1 23.6 26.3 22.8 19.9 17.2 18.4 17.0
13.8 13.9 13.5 17.3 15.5 13.3 15.5 16.6 14.5 6.3 14.3 15.3 24.0 18.8 11.0 14.9 21.7 16.2 17.2 20.5 16.8 28.2 20.3 22.0 18.2 17.8 19.4 29.0 35.8 35.1 37.4 39.1 38.1 35.2 31.9 23.0 23.1 18.9 19.4 21.1 16.5 14.7 12.9
16.6 14.4 14.5 13.5 20.0 16.3 15.3 18.1 13.0 17.4 20.2 15.5 18.9 14.0 14.9 13.8 14.8 21.6 20.1 16.5 18.4 16.9 14.6 14.5 15.3 15.8 16.1 17.2 23.9 30.1 29.5 4.3 19.7 4.7 28.3 20.7 25.1 25.9 24.6 20.1 18.4 15.4 12.7
13.4 13.9 14.2 14.4 14.0 15.5 16.3 15.9 16.6 13.3 16.9 18.0 16.6 16.8 14.3 14.4 14.5 17.5 16.3 16.4 13.1 13.7 14.1 15.6 15.5 13.5 12.5 14.6 15.7 6.7 4.0 3.5 23.8 4.0 23.0 19.3 22.6 21.9 21.6 21.7 20.0 18.0 14.5
Water_Equivalent
0.00 0.00 0.00 0.00 0.00 0.00 0.00 0.00 0.00 0.00 0.00 0.00 0.00 0.00 0.00 0.00 0.00 0.00 0.00 0.00 0.00 0.00 0.00 0.00 0.00 0.00 0.00 0.00 0.00 0.00 0.00 0.01 0.10 0.02 0.01 0.02 0.03 0.03 0.02 0.03 0.03 0.05 0.04
0.00 0.00 0.00 0.00 0.00 0.00 0.00 0.00 0.00 0.00 0.00 0.00 0.00 0.00 0.00 0.00 0.00 0.00 0.00 0.00 0.00 0.00 0.00 0.00 0.00 0.00 0.02 0.00 0.00 0.01 0.01 0.02 0.04 0.03 0.05 0.04 0.04 0.04 0.06 0.09 0.08 0.05 0.15
0.00 0.00 0.00 0.00 0.00 0.00 0.00 0.00 0.00 0.00 0.00 0.00 0.00 0.00 0.00 0.00 0.00 0.00 0.00 0.00 0.00 0.00 0.00 0.01 0.01 0.02 0.03 0.05 0.03 0.03 0.03 0.02 0.03 0.13 0.16 0.14 0.16 0.18 0.21 0.16 0.19 0.23 0.21
0.00 0.00 0.00 0.00 0.00 0.00 0.00 0.00 0.00 0.00 0.00 0.00 0.00 0.00 0.00 0.01 0.01 0.01 0.01 0.01 0.01 0.01 0.01 0.02 0.02 0.02 0.03 0.03 0.04 0.04 0.06 0.20 0.24 0.26 0.27 0.23 0.22 0.24 0.26 0.23 0.29 0.23 0.31
0.00 0.00 0.00 0.00 0.00 0.01 0.02 0.03 0.03 0.03 0.00 0.00 0.00 0.02 0.01 0.01 0.01 0.02 0.02 0.03 0.03 0.02 0.03 0.03 0.03 0.01 nan nan 0.12 0.11 0.12 0.25 0.46 0.53 0.35 0.28 0.24 0.22 0.22 0.18 0.35 0.34 0.32
0.00 0.00 0.00 0.04 0.05 0.06 0.06 0.06 0.04 0.04 0.04 0.04 0.04 0.04 0.04 0.01 nan nan 0.03 0.03 0.04 0.03 0.03 0.04 0.05 0.08 0.06 nan nan nan nan 0.27 1.06 1.05 0.29 0.23 0.16 0.23 0.31 0.31 0.37 0.40 0.37
0.04 0.09 0.08 0.07 0.08 0.07 0.06 0.06 0.05 0.05 0.05 0.05 0.06 0.06 0.07 0.06 nan nan nan 0.07 0.06 0.03 0.05 0.08 0.11 0.08 0.18 0.08 nan nan nan nan nan 0.11 0.26 0.28 0.42 0.33 0.40 0.42 0.27 0.32 0.35
0.07 0.14 0.12 0.07 0.15 0.08 0.07 0.08 0.06 0.05 0.07 0.07 0.08 0.09 0.08 0.07 nan nan nan 0.06 0.06 0.07 0.08 0.11 0.14 0.16 0.17 0.21 0.21 0.27 0.21 0.19 0.16 0.17 0.30 0.38 0.40 0.39 0.34 0.31 0.37 0.49 0.48
0.04 0.06 0.07 0.11 0.20 0.10 0.29 0.12 0.08 0.17 0.14 0.24 0.24 0.41 0.34 0.32 nan nan 0.12 0.22 0.19 0.17 0.09 0.14 0.18 0.20 nan nan 0.37 0.63 0.52 0.48 nan nan nan nan nan nan nan 1.21 2.41 2.61 1.39
0.04 0.04 0.05 0.11 0.34 0.27 0.12 0.22 0.28 0.30 0.27 0.41 0.38 0.38 0.25 0.58 nan nan nan 0.77 0.79 0.52 0.32 0.20 0.35 0.28 nan nan 0.52 0.76 1.06 0.68 0.76 0.98 0.59 0.33 nan nan nan 0.46 1.07 2.38 1.37
0.11 0.11 0.13 0.13 0.39 0.20 0.26 0.23 0.40 0.49 0.32 0.55 0.52 0.44 0.52 0.38 0.36 nan nan 0.52 0.72 0.94 0.90 0.64 0.44 nan nan nan nan 0.88 0.89 0.84 1.34 1.10 0.95 0.90 0.77 0.64 0.59 0.47 0.31 0.55 1.08
0.21 0.22 0.28 0.47 0.42 0.43 0.88 0.56 0.78 0.73 0.73 0.65 0.69 0.61 0.57 0.34 nan nan nan nan nan 1.46 0.81 0.44 0.47 nan nan nan 0.76 nan nan 0.88 1.82 1.70 1.38 1.04 0.73 0.69 0.53 0.48 0.25 0.28 0.25
0.51 0.73 0.73 0.66 0.70 0.71 1.04 0.69 0.95 0.82 0.92 0.58 0.78 0.77 0.61 0.62 0.71 nan nan nan nan 0.86 0.62 0.46 nan nan nan nan nan nan 0.84 1.41 1.63 1.69 1.12 0.71 0.44 0.34 0.26 0.35 0.25 0.24 0.22
1.02 0.54 0.43 0.57 0.48 0.57 0.76 0.88 1.28 1.01 0.85 0.97 1.14 1.09 0.75 0.71 0.55 0.61 1.12 0.90 0.69 0.99 nan 0.81 nan 0.63 nan nan 0.82 0.72 0.96 0.99 0.96 1.03 0.84 0.49 0.45 0.59 0.64 0.45 0.68 0.62 1.13
0.68 0.36 0.49 0.73 0.83 0.52 0.50 0.82 0.72 0.52 1.05 1.73 2.07 1.48 1.52 1.41 1.04 0.63 1.49 1.69 1.59 1.52 1.33 1.80 1.46 1.00 0.97 0.86 1.07 0.99 0.97 1.04 1.11 1.06 1.00 0.91 0.85 0.82 0.80 0.63 0.68 0.92 1.19
0.38 0.59 0.61 0.62 0.52 0.46 0.47 0.49 nan nan nan nan nan 1.28 1.67 nan nan nan nan nan nan nan 2.68 2.63 1.29 1.03 0.78 0.83 1.02 0.95 0.84 0.85 0.84 0.96 1.05 1.05 1.10 0.91 0.93 1.04 1.03 1.16 1.22
0.77 0.51 0.65 0.54 0.54 0.62 0.66 0.77 0.89 0.72 nan nan nan nan nan nan nan nan nan nan nan nan 4.02 2.01 1.60 1.09 1.02 0.81 0.97 0.88 0.85 0.72 0.49 0.83 0.82 0.93 1.04 1.17 1.22 1.15 1.04 0.97 1.43
0.72 0.68 0.78 0.76 0.74 0.79 0.85 0.88 0.92 1.07 1.22 1.01 nan nan nan nan nan nan nan nan 3.33 nan 2.89 2.83 2.37 1.87 1.38 1.21 0.99 0.92 0.93 0.88 0.82 0.97 1.02 1.48 1.71 1.83 1.68 1.67 1.26 1.60 1.56
0.76 0.65 0.73 0.75 0.74 0.79 0.87 0.77 0.84 0.83 0.86 1.11 1.10 1.14 0.99 nan nan nan nan 2.07 2.83 2.49 2.49 2.56 2.09 1.87 1.44 1.55 1.46 1.68 1.42 1.47 1.40 1.95 2.00 2.18 2.01 2.11 2.10 1.52 1.19 0.96 1.06
0.81 0.83 0.81 1.08 0.96 0.87 0.64 0.78 0.71 0.76 0.85 1.00 1.05 0.93 1.67 1.84 2.49 2.60 2.17 3.04 2.99 2.61 2.24 2.47 2.50 2.75 2.79 2.57 2.51 2.29 2.29 2.41 2.15 2.27 2.25 2.17 2.06 2.24 1.42 2.09 1.81 1.44 1.71
1.39 1.14 0.88 0.98 1.25 1.29 1.34 1.07 0.84 1.17 1.03 1.23 0.94 0.90 nan 1.63 1.82 2.04 2.43 2.19 2.63 2.88 2.30 2.56 2.67 3.51 3.67 4.08 3.30 3.14 2.90 1.71 2.23 2.49 2.67 2.68 2.59 3.27 1.94 1.20 1.86 2.03 1.97
1.47 1.55 1.55 1.66 1.11 1.17 1.40 0.94 1.04 1.06 1.00 0.87 0.67 0.77 nan 0.97 1.25 1.34 1.52 2.12 2.70 2.70 3.12 3.75 3.67 4.08 3.53 3.23 2.87 2.66 2.17 2.66 2.96 2.74 2.16 2.30 2.77 2.39 2.39 1.58 1.69 1.44 2.01
1.24 1.05 1.14 1.14 1.10 1.42 1.28 1.54 1.32 1.25 1.11 1.26 1.09 1.07 1.27 1.69 1.42 1.36 2.25 2.58 1.95 1.80 2.10 2.27 2.12 2.11 1.98 2.36 2.06 2.00 2.16 2.52 2.66 3.62 2.31 2.45 2.37 2.81 2.52 2.20 1.93 2.13 2.03
1.10 1.13 1.10 1.55 1.33 1.06 1.32 1.44 1.20 1.49 1.25 1.38 2.38 1.85 0.99 1.39 2.16 1.48 1.61 2.00 1.59 3.03 2.03 2.22 1.75 1.71 1.96 3.22 4.23 4.14 4.51 4.77 4.49 4.05 3.58 2.26 2.25 1.99 1.92 2.31 1.80 1.72 1.39
1.41 1.16 1.20 1.10 1.84 1.41 1.29 1.62 1.07 1.57 1.91 1.42 1.86 1.26 1.31 1.19 1.35 2.17 1.99 1.58 1.82 1.67 1.40 1.39 1.48 1.56 1.60 1.72 2.55 3.39 3.62 1.42 2.59 1.55 3.06 2.01 2.50 2.57 2.42 2.04 1.90 1.55 1.33
1.10 1.16 1.20 1.24 1.20 1.38 1.48 1.45 1.53 1.16 1.57 1.71 1.55 1.58 1.31 1.31 1.35 1.73 1.58 1.60 1.24 1.31 1.39 1.55 1.55 1.33 1.23 1.45 1.57 1.64 1.32 1.16 2.72 1.32 2.39 1.86 2.20 2.01 1.96 2.00 1.83 1.74 1.40
SL_Ratio
nan nan nan nan nan nan nan nan nan nan nan nan nan nan nan nan nan nan nan nan 5.0 3.8 nan nan nan nan nan nan nan nan 0.0 2.6 3.4 2.7 2.6 2.6 2.4 2.5 3.4 3.9 3.8 3.6 3.4
nan nan nan nan nan nan nan nan nan nan nan nan nan nan nan nan nan nan 0.0 3.8 4.0 5.0 nan nan nan 0.0 3.9 nan nan 3.0 2.8 2.4 3.4 4.6 5.4 4.5 4.0 3.0 3.2 3.8 3.8 3.5 4.3
nan nan nan nan nan nan nan nan nan nan nan nan nan nan nan nan nan nan nan nan nan nan nan 3.5 3.9 4.1 3.9 3.6 2.6 3.0 3.2 2.5 3.4 5.2 5.9 5.6 5.4 4.5 4.9 5.1 5.4 5.7 5.3
nan nan nan nan nan nan nan nan nan nan nan nan nan nan nan 2.4 2.2 3.6 3.7 3.8 3.8 3.8 3.8 3.9 4.0 3.8 3.8 3.5 3.8 3.3 3.7 4.6 4.7 4.8 5.4 5.7 6.0 6.6 6.1 7.1 7.6 7.0 6.8
nan nan nan nan nan 3.7 3.7 3.8 3.9 4.2 nan nan nan 4.7 3.3 3.7 3.6 3.8 3.5 3.6 3.7 3.8 3.7 3.6 3.6 3.2 nan nan 4.2 4.6 4.7 4.8 5.1 5.4 6.1 7.0 7.4 7.9 7.6 7.2 7.1 7.4 7.7
0.0 5.0 3.3 4.0 4.5 4.6 4.6 4.7 4.8 5.2 5.4 5.9 6.3 6.3 6.2 3.8 nan nan 3.5 3.7 3.7 3.3 3.7 3.9 3.9 3.9 3.9 nan nan nan nan 5.3 7.0 6.8 6.4 7.3 7.1 7.3 7.5 7.7 7.6 8.0 8.6
4.9 5.3 5.4 5.5 5.9 5.5 5.7 6.4 6.9 6.7 6.3 6.9 6.9 6.7 7.2 6.0 nan nan nan 4.0 4.1 3.5 3.7 4.1 4.3 4.3 3.8 4.3 nan nan nan nan nan 5.3 6.5 6.6 7.2 7.0 7.1 8.0 7.9 7.1 7.2
5.7 6.6 6.9 6.9 7.5 7.5 7.6 7.6 7.3 6.9 7.4 7.7 7.5 7.3 6.9 6.6 nan nan nan 3.9 4.3 4.0 4.0 4.3 4.6 4.9 5.1 4.6 4.5 5.4 5.1 5.1 5.0 5.4 5.5 6.1 6.2 6.7 6.9 7.2 7.7 7.3 7.0
6.0 6.5 6.9 7.4 7.7 7.8 7.9 8.1 8.4 8.6 8.9 9.4 8.3 8.6 8.3 7.2 nan nan 4.2 5.3 5.7 5.8 5.4 6.0 5.9 6.0 nan nan 7.0 8.5 7.8 7.2 nan nan nan nan nan nan nan 6.8 7.4 7.5 7.8
6.4 6.3 6.9 7.6 7.8 8.2 8.1 8.2 7.9 8.2 9.4 8.8 9.2 8.5 5.1 8.4 nan nan nan 5.2 7.4 7.3 7.5 6.9 3.3 6.3 nan nan 6.3 8.1 8.8 8.1 7.5 7.4 6.6 5.7 nan nan nan 6.9 7.2 8.0 7.8
7.4 7.9 8.2 8.2 8.2 8.0 7.9 7.7 8.0 9.4 9.2 9.2 9.1 8.8 8.7 6.8 7.2 nan nan 6.8 7.2 7.6 7.3 7.8 7.2 nan nan nan nan 7.9 8.3 7.6 7.9 8.0 8.0 7.9 7.3 7.0 6.8 7.0 7.1 7.0 7.7
8.0 8.9 8.8 8.6 8.1 8.0 8.5 8.8 8.8 9.2 9.3 9.4 9.3 9.1 8.4 8.2 nan nan nan nan nan 7.2 7.7 7.4 7.2 nan nan nan 4.7 nan nan 4.7 7.3 8.2 8.4 8.4 8.3 8.2 7.8 7.7 7.9 7.6 7.1
9.8 9.6 9.5 8.8 8.8 8.5 8.6 9.3 8.5 9.2 9.2 9.4 9.2 9.2 9.0 8.6 8.1 nan nan nan nan 6.7 6.8 7.5 nan nan nan nan nan nan 3.0 7.1 8.2 8.8 9.0 8.6 8.3 8.1 8.4 8.4 8.4 8.5 8.7
9.3 9.8 10.0 9.8 8.3 8.6 7.9 8.0 8.2 8.9 9.3 9.2 9.1 9.1 9.2 9.4 9.2 8.4 7.1 5.9 4.6 6.9 nan 6.7 nan 7.3 nan nan 6.0 6.8 7.6 7.9 8.5 8.9 8.5 8.4 8.3 8.5 8.6 8.4 8.5 8.4 8.1
10.0 10.7 8.9 8.4 8.3 9.2 9.3 8.5 9.2 8.6 8.7 9.3 9.0 9.5 9.7 9.4 9.2 9.1 8.3 7.9 7.1 7.4 6.6 8.4 8.7 8.9 9.0 9.1 8.9 8.8 8.6 8.7 8.9 8.7 9.0 9.0 8.8 8.6 8.6 8.6 8.6 8.5 8.6
10.8 10.0 9.4 8.9 8.8 9.3 9.8 10.0 nan nan nan nan nan 7.6 7.8 nan nan nan nan nan nan nan 7.7 8.7 9.6 9.7 9.9 9.9 9.8 9.9 9.9 8.8 9.7 9.5 9.4 9.2 9.2 9.2 9.1 8.9 8.6 8.7 9.1
9.5 10.0 9.9 9.4 10.3 10.1 10.0 9.9 10.0 9.3 nan nan nan nan nan nan nan nan nan nan nan nan 8.1 9.1 9.6 10.1 10.3 10.7 10.5 10.8 11.0 10.7 10.9 10.2 10.1 9.7 9.4 9.1 8.7 8.8 8.8 8.9 8.7
9.9 3.0 10.0 10.2 10.2 10.1 10.1 10.1 10.0 10.0 9.9 9.9 nan nan nan nan nan nan nan nan 8.2 nan 8.6 8.8 9.2 9.6 10.4 10.8 11.1 11.5 11.5 11.5 11.4 10.7 10.5 9.6 9.1 9.0 8.9 8.6 8.7 8.4 8.5
10.2 10.3 10.1 10.1 10.0 9.8 9.9 10.3 10.2 10.4 10.4 10.0 10.0 9.8 6.0 nan nan nan nan 9.0 8.7 9.1 9.1 9.1 9.5 9.9 10.4 10.2 10.3 10.0 10.5 10.5 10.5 9.8 9.6 9.3 9.1 8.9 8.7 8.7 8.9 6.8 7.2
10.4 4.1 8.0 10.1 10.5 10.5 10.8 10.8 11.0 10.9 11.0 10.4 10.2 10.2 9.5 8.4 8.9 8.8 9.1 8.6 8.7 9.0 9.3 9.2 9.3 9.1 9.1 9.2 9.2 9.4 9.5 9.5 9.8 9.7 9.7 9.5 9.2 8.8 9.7 8.6 8.5 9.1 8.4
10.6 10.9 3.0 11.1 10.6 10.4 10.4 11.0 11.5 10.8 10.9 10.3 10.5 10.1 nan 9.8 9.7 9.5 9.2 9.5 9.2 8.9 9.3 9.1 9.2 8.7 8.6 8.3 8.8 8.9 9.1 10.1 9.6 9.5 9.3 9.3 9.2 8.7 9.0 9.7 8.7 8.4 8.4
10.9 10.7 10.7 10.7 11.7 11.6 11.0 11.8 11.5 11.4 11.5 11.9 12.3 11.1 nan 10.7 10.5 10.2 10.1 9.5 9.1 9.3 9.1 8.9 8.9 8.7 8.9 9.0 9.3 9.3 9.7 9.3 9.0 9.3 10.0 9.8 9.3 9.3 8.8 9.2 9.0 9.1 8.3
11.8 12.6 12.2 12.3 12.3 4.7 11.7 11.0 11.4 11.4 11.7 11.0 11.0 11.4 11.2 10.0 10.3 10.6 9.6 9.6 10.2 10.4 10.0 9.9 9.9 10.0 10.0 9.7 9.9 9.9 10.0 9.7 9.6 8.8 10.1 9.8 10.0 9.3 9.1 9.1 8.9 8.7 8.4
12.6 12.3 12.2 11.2 11.6 12.5 11.7 11.5 12.1 4.2 11.5 11.1 10.1 10.1 11.2 10.7 10.0 10.9 10.7 10.3 10.6 9.3 10.0 9.9 10.4 10.4 9.9 9.0 8.5 8.5 8.3 8.2 8.5 8.7 8.9 10.2 10.3 9.5 10.1 9.1 9.2 8.5 9.3
11.8 12.4 12.2 12.3 10.9 11.6 11.8 11.2 12.2 11.0 10.6 10.9 10.2 11.1 11.4 11.6 11.0 9.9 10.1 10.5 10.1 10.1 10.4 10.4 10.3 10.2 10.1 10.0 9.4 8.9 8.1 3.0 7.6 3.0 9.3 10.3 10.0 10.1 10.2 9.9 9.7 9.9 9.5
12.2 12.0 11.8 11.6 11.6 11.2 11.0 11.0 10.9 11.5 10.7 10.6 10.7 10.6 10.9 10.9 10.8 10.1 10.3 10.3 10.6 10.4 10.2 10.0 10.0 10.1 10.1 10.1 10.0 4.1 3.0 3.0 8.7 3.0 9.6 10.4 10.3 10.9 11.0 10.8 10.9 10.4 10.4